Location: Weatherford
(35.5260°N, 98.7070°W)
Time: 13:30:07
(UTC-06:00)

Amateur Radio Satellites - All Passes

Search period start: 27 November 2014 13:00
Search period end: 28 November 2014 13:00
Location: Weatherford, 35.5260°N, 98.7070°W

Satellite Date Start Highest point End Downlink Frequencies (MHz)
Time Altitude Azimuth
TISAT 1 27 Nov 12:59:56 13:04:06 63° 285° (WNW) 13:08:14 437.305
Oscar 19 27 Nov 13:01:39 13:06:35 53° 73° (ENE) 13:11:34 437.125/150
DANDE 27 Nov 13:02:29 13:05:12 41° 97° (E) 13:07:42 436.750
Gurwin Techsat 1B 27 Nov 13:04:00 13:05:44 12° 62° (ENE) 13:07:27 435.225
SWISSCUBE 27 Nov 13:04:39 13:08:03 19° 94° (E) 13:11:26 437.505
ESTCUBE 1 27 Nov 13:04:40 13:07:18 15° 294° (WNW) 13:09:55 437.505/2401.250
SPROUT 27 Nov 13:14:46 13:18:53 48° 286° (WNW) 13:22:59 437.525
YUBILEINY 27 Nov 13:19:42 13:27:48 41° 76° (ENE) 13:35:48 435.215
BEESAT 27 Nov 13:34:31 13:38:58 37° 98° (E) 13:43:23 436.000
HORYU 2 27 Nov 13:51:30 13:53:02 12° 64° (ENE) 13:54:34 437.375
SO-50 27 Nov 13:55:49 13:59:46 25° 249° (WSW) 14:03:43 436.795
ITAMSAT 1 27 Nov 13:58:01 14:03:12 73° 75° (ENE) 14:08:25 435.822/435.867
PHONESAT 2.4 27 Nov 14:04:47 14:08:21 48° 152° (SSE) 14:11:57 2401.200-2431.200
MaSat-1 27 Nov 14:08:20 14:09:51 13° 108° (ESE) 14:11:20 437.345
VERMONT LUNAR 27 Nov 14:09:14 14:12:50 74° 155° (SSE) 14:16:27 437.305
AUBIESAT-1 27 Nov 14:25:25 14:30:13 57° 291° (WNW) 14:34:51 437.475
STARS 27 Nov 14:28:36 14:31:34 18° 95° (E) 14:34:32 437.465
ITUPSAT 1 27 Nov 14:31:05 14:35:46 53° 287° (WNW) 14:40:24 437.325
M-CUBED/EXP-1 PRIME 27 Nov 14:31:56 14:36:37 44° 292° (WNW) 14:41:08 437.505
RS-15 27 Nov 14:37:25 14:45:49 26° 103° (ESE) 14:54:06 29.354- 29.394
Gurwin Techsat 1B 27 Nov 14:39:39 14:44:57 80° 257° (WSW) 14:50:17 435.225
SWISSCUBE 27 Nov 14:41:36 14:46:00 37° 289° (WNW) 14:50:22 437.505
Oscar 19 27 Nov 14:43:22 14:46:12 15° 267° (W) 14:49:04 437.125/150
O/OREOS (USA 219) 27 Nov 15:03:15 15:06:09 17° 60° (ENE) 15:09:02 437.305
KKS-1 27 Nov 15:11:33 15:16:00 88° 103° (ESE) 15:20:26 437.445
AO-7 27 Nov 15:12:33 15:20:18 47° 65° (ENE) 15:28:06 29.400- 29.500
BEESAT 27 Nov 15:13:05 15:16:31 20° 293° (WNW) 15:19:57 436.000
YUBILEINY 27 Nov 15:16:39 15:24:24 38° 273° (W) 15:32:09 435.215
HORYU 2 27 Nov 15:24:50 15:29:10 57° 259° (W) 15:33:33 437.375
ITAMSAT 1 27 Nov 15:41:49 15:43:09 11° 269° (W) 15:44:29 435.822/435.867
MaSat-1 27 Nov 15:42:05 15:44:11 18° 297° (WNW) 15:46:10 437.345
PHONESAT 2.4 27 Nov 15:43:35 15:47:11 48° 347° (NNW) 15:50:48 2401.200-2431.200
VERMONT LUNAR 27 Nov 15:48:03 15:51:29 40° 352° (N) 15:54:55 437.305
STARS 27 Nov 16:04:09 16:08:07 34° 288° (WNW) 16:12:05 437.465
JAS-2 27 Nov 16:23:11 16:30:19 45° 69° (ENE) 16:37:40 435.910
MOZHAYETS 4 27 Nov 16:29:40 16:32:21 15° 93° (E) 16:35:01
O/OREOS (USA 219) 27 Nov 16:41:31 16:45:42 40° 255° (WSW) 16:49:53 437.305
RS-15 27 Nov 16:46:04 16:57:02 73° 302° (WNW) 17:08:00 29.354- 29.394
Cubesat XI-IV 27 Nov 16:52:48 16:56:02 16° 64° (ENE) 16:59:16 437.490
AO-7 27 Nov 17:05:46 17:13:07 35° 261° (W) 17:20:34 29.400- 29.500
PHONESAT 2.4 27 Nov 17:22:54 17:26:23 37° 4° (N) 17:29:53 2401.200-2431.200
VERMONT LUNAR 27 Nov 17:26:56 17:30:23 40° 9° (N) 17:33:50 437.305
CUTE-I 27 Nov 17:31:42 17:36:35 38° 70° (ENE) 17:41:29 437.470
MOZHAYETS 4 27 Nov 18:05:19 18:09:46 45° 287° (WNW) 18:14:10
JAS-2 27 Nov 18:08:30 18:15:17 36° 265° (W) 18:22:22 435.910
CUBESAT XI-V 27 Nov 18:16:19 18:18:47 14° 92° (E) 18:21:14 437.345
Cubesat XI-IV 27 Nov 18:30:19 18:35:35 58° 259° (W) 18:40:53 437.490
PRISM 27 Nov 18:37:55 18:42:09 71° 102° (ESE) 18:46:20 437.425
PCSat 27 Nov 19:01:21 19:06:26 44° 111° (ESE) 19:11:33 145.827
PHONESAT 2.4 27 Nov 19:01:44 19:05:28 81° 21° (NNE) 19:09:10 2401.200-2431.200
RS-15 27 Nov 19:03:56 19:11:42 21° 328° (NNW) 19:19:34 29.354- 29.394
VERMONT LUNAR 27 Nov 19:05:24 19:09:01 71° 205° (SSW) 19:12:37 437.305
GONETS M04 27 Nov 19:10:03 19:18:28 46° 77° (ENE) 19:26:45
CUTE-I 27 Nov 19:12:29 19:16:42 24° 265° (W) 19:20:56 437.470
BEESAT 3 27 Nov 19:13:05 19:16:30 26° 112° (ESE) 19:19:59 437.485
HO-68 27 Nov 19:27:24 19:32:56 25° 62° (ENE) 19:38:29 435.675
STRAND 1 27 Nov 19:29:00 19:34:07 83° 103° (ESE) 19:39:12 437.568
BEESAT 2 27 Nov 19:29:41 19:33:27 37° 114° (ESE) 19:37:18 435.950
AIST 1 27 Nov 19:44:43 19:49:04 69° 95° (E) 19:53:28
CUBESAT XI-V 27 Nov 19:51:59 19:56:27 47° 287° (WNW) 20:00:51 437.345
CANX-2 27 Nov 19:54:31 19:57:34 20° 69° (ENE) 20:00:37 2200.000
COMPASS 1 27 Nov 19:54:45 19:56:35 13° 66° (ENE) 19:58:26 437.405
AIST 2 27 Nov 20:12:17 20:16:22 54° 116° (ESE) 20:20:33 435.215
BRITE-PL 27 Nov 20:14:17 20:18:46 34° 73° (ENE) 20:22:57 437.365/2234.400
DOVE 4 27 Nov 20:24:03 20:27:30 22° 70° (ENE) 20:30:49 437.250
CUTE 1.7 + AOD 2 27 Nov 20:27:48 20:31:48 44° 74° (ENE) 20:35:49 437.475
PHONESAT 2.4 27 Nov 20:41:07 20:43:59 21° 215° (SW) 20:46:50 2401.200-2431.200
VERMONT LUNAR 27 Nov 20:45:16 20:47:03 13° 218° (SW) 20:48:50 437.305
PCSat 27 Nov 20:45:41 20:50:00 24° 307° (NW) 20:54:20 145.827
CINEMA 3 27 Nov 20:45:45 20:49:03 21° 70° (ENE) 20:52:16 145.822/145.860
BEESAT 3 27 Nov 20:51:20 20:54:40 24° 308° (NW) 20:58:04 437.485
SEEDS 27 Nov 20:58:07 21:02:18 90° 258° (WSW) 21:06:31 437.485
UKube-1 27 Nov 21:01:44 21:05:35 31° 71° (ENE) 21:09:26 .
DELFI C3 27 Nov 21:06:51 21:10:27 31° 72° (ENE) 21:14:06 145.870
GONETS M04 27 Nov 21:07:20 21:14:55 34° 275° (W) 21:22:28
BEESAT 2 27 Nov 21:08:58 21:11:52 18° 310° (NW) 21:14:48 435.950
FUNcube-1 27 Nov 21:09:15 21:11:56 17° 68° (ENE) 21:14:37 145.935
AAUSAT CUBESAT 2 27 Nov 21:10:59 21:15:08 86° 257° (WSW) 21:19:20 437.432
AISAT 27 Nov 21:11:14 21:13:10 13° 65° (ENE) 21:15:07 437.250
Oscar 11 27 Nov 21:11:15 21:15:20 45° 74° (ENE) 21:19:27 145.826/435.025
STRAND 1 27 Nov 21:11:39 21:12:33 10° 299° (WNW) 21:13:28 437.568
HO-68 27 Nov 21:13:03 21:20:06 59° 258° (WSW) 21:27:12 435.675
GOMX 1 27 Nov 21:13:34 21:18:23 76° 258° (WSW) 21:22:53 467.674
RS-15 27 Nov 21:26:33 21:30:32 12° 6° (N) 21:34:34 29.354- 29.394
COMPASS 1 27 Nov 21:27:54 21:31:53 45° 261° (W) 21:35:55 437.405
CANX-2 27 Nov 21:29:39 21:33:18 29° 263° (W) 21:36:59 2200.000
HUMSAT D 27 Nov 21:38:36 21:41:46 22° 70° (ENE) 21:44:56 437.325/437.525
DX 1 27 Nov 21:38:41 21:43:05 90° 74° (ENE) 21:47:29 434.975-435.025
UWE-3 27 Nov 21:38:53 21:42:55 45° 74° (ENE) 21:46:54 435.000/436.395/437.385
CUBEBUG 2 27 Nov 21:42:41 21:46:53 60° 76° (ENE) 21:51:00 437.445
AIST 2 27 Nov 21:52:58 21:55:20 14° 312° (NW) 21:57:44 435.215
BRITE-PL 27 Nov 21:53:29 21:57:16 21° 264° (W) 22:00:51 437.365/2234.400
DOVE 4 27 Nov 22:01:05 22:05:06 29° 262° (W) 22:08:58 437.250
CUTE 1.7 + AOD 2 27 Nov 22:06:09 22:07:56 12° 268° (W) 22:09:43 437.475
ZACube-1 27 Nov 22:09:15 22:13:28 89° 258° (WSW) 22:17:39 437.345
ANTELSAT 27 Nov 22:12:13 22:14:50 15° 94° (E) 22:17:28 437.575/2403.000
VELOX 1 27 Nov 22:17:17 22:21:44 71° 75° (ENE) 22:26:11 145.980
CINEMA 3 27 Nov 22:22:22 22:26:06 27° 263° (W) 22:29:45 145.822/145.860
ESTCUBE 1 27 Nov 22:23:43 22:27:38 29° 70° (ENE) 22:31:34 437.505/2401.250
ISS 27 Nov 22:24:57 22:28:07 49° 134° (SE) 22:31:19 145.825
NANOSAT C BR1 27 Nov 22:32:49 22:35:24 16° 94° (E) 22:37:58 145.865
UKube-1 27 Nov 22:38:40 22:41:46 19° 265° (W) 22:44:53 .
QB50P1 27 Nov 22:42:28 22:45:40 21° 95° (E) 22:48:52 145.935-145.965
BUGSAT 1 27 Nov 22:42:59 22:45:31 16° 94° (E) 22:48:02 437.445
DELFI C3 27 Nov 22:43:15 22:45:49 16° 266° (W) 22:48:23 145.870
FUNcube-1 27 Nov 22:44:14 22:48:02 33° 262° (W) 22:51:48 145.935
AISAT 27 Nov 22:44:56 22:49:19 54° 260° (W) 22:53:42 437.250
50 SAT 27 Nov 22:48:13 22:52:11 60° 259° (W) 22:56:10 437.505
Oscar 11 27 Nov 22:49:47 22:51:43 13° 268° (W) 22:53:39 145.826/435.025
CUBEBUG 1 27 Nov 22:50:09 22:54:30 56° 74° (ENE) 22:58:51 437.445
TIGRISAT 27 Nov 23:03:30 23:07:55 58° 101° (E) 23:12:25 435.000
POPSAT HIP 1 27 Nov 23:06:55 23:10:54 41° 99° (E) 23:14:53 437.405
CUSAT 1 27 Nov 23:09:03 23:13:13 24° 78° (ENE) 23:18:19 437.405
HUMSAT D 27 Nov 23:14:04 23:17:27 24° 264° (W) 23:20:50 437.325/437.525
UWE-3 27 Nov 23:18:07 23:19:40 12° 267° (W) 23:21:13 435.000/436.395/437.385
UNISAT 6 27 Nov 23:18:17 23:22:47 88° 103° (ESE) 23:27:23 437.425
JUGNU 27 Nov 23:24:09 23:27:22 15° 172° (S) 23:30:35 437.505
RS-15 27 Nov 23:39:09 23:48:32 29° 41° (NE) 23:58:10 29.354- 29.394
SRMSAT 27 Nov 23:40:34 23:41:59 11° 166° (SSE) 23:43:25 437.500
AUBIESAT-1 27 Nov 23:40:36 23:41:44 11° 57° (ENE) 23:42:54 437.475
POLYITAN 1 27 Nov 23:41:36 23:45:50 72° 284° (WNW) 23:50:02 437.675
QB50P2 27 Nov 23:42:47 23:47:00 69° 284° (WNW) 23:51:12 145.880/145.840
DANDE 27 Nov 23:43:25 23:48:07 40° 80° (E) 23:54:16 436.750
M-CUBED/EXP-1 PRIME 27 Nov 23:46:08 23:48:21 14° 59° (ENE) 23:50:39 437.505
DUCHIFAT 1 27 Nov 23:47:29 23:51:38 61° 285° (WNW) 23:55:47 145.980
ANTELSAT 27 Nov 23:47:32 23:51:46 43° 287° (WNW) 23:56:05 437.575/2403.000
TISAT 1 27 Nov 23:49:28 23:53:41 64° 75° (ENE) 23:57:54 437.305
ITUPSAT 1 28 Nov 00:00:28 00:02:18 12° 63° (ENE) 00:04:08 437.325
ESTCUBE 1 28 Nov 00:00:55 00:04:28 22° 265° (W) 00:08:02 437.505/2401.250
ISS 28 Nov 00:02:39 00:04:57 17° 330° (NNW) 00:07:15 145.825
SPROUT 28 Nov 00:05:46 00:10:05 86° 76° (ENE) 00:14:25 437.525
NANOSAT C BR1 28 Nov 00:07:32 00:11:22 35° 288° (WNW) 00:15:11 145.865
SWISSCUBE 28 Nov 00:09:13 00:12:15 17° 66° (ENE) 00:15:18 437.505
BUGSAT 1 28 Nov 00:17:29 00:21:05 31° 288° (WNW) 00:24:39 437.445
QB50P1 28 Nov 00:17:59 00:21:31 27° 289° (WNW) 00:25:04 145.935-145.965
CUBEBUG 1 28 Nov 00:29:58 00:31:10 11° 268° (W) 00:32:22 437.445
BEESAT 28 Nov 00:38:28 00:42:39 31° 70° (ENE) 00:46:52 436.000
TIGRISAT 28 Nov 00:42:32 00:44:11 12° 295° (WNW) 00:45:50 435.000
POPSAT HIP 1 28 Nov 00:44:11 00:46:26 14° 293° (WNW) 00:48:42 437.405
CUSAT 1 28 Nov 00:51:19 00:56:14 42° 264° (W) 01:02:36 437.405
JUGNU 28 Nov 01:11:59 01:15:38 17° 182° (S) 01:19:18 437.505
AUBIESAT-1 28 Nov 01:12:02 01:16:01 65° 255° (WSW) 01:20:25 437.475
Oscar 19 28 Nov 01:16:49 01:20:59 24° 96° (E) 01:25:08 437.125/150
M-CUBED/EXP-1 PRIME 28 Nov 01:18:59 01:22:52 47° 257° (WSW) 01:27:07 437.505
MaSat-1 28 Nov 01:22:18 01:24:06 19° 251° (WSW) 01:25:57 437.345
STARS 28 Nov 01:24:51 01:26:23 12° 65° (ENE) 01:27:55 437.465
SRMSAT 28 Nov 01:26:44 01:30:23 17° 176° (S) 01:34:03 437.500
DANDE 28 Nov 01:27:28 01:31:32 23° 266° (W) 01:36:29 436.750
ITUPSAT 1 28 Nov 01:34:49 01:39:35 66° 258° (WSW) 01:44:24 437.325
SWISSCUBE 28 Nov 01:45:08 01:49:43 45° 261° (W) 01:54:20 437.505
RS-15 28 Nov 01:50:54 02:02:14 84° 243° (WSW) 02:14:05 29.354- 29.394
KKS-1 28 Nov 02:06:54 02:11:14 54° 74° (ENE) 02:15:35 437.445
ITAMSAT 1 28 Nov 02:14:24 02:19:02 33° 98° (E) 02:23:38 435.822/435.867
YUBILEINY 28 Nov 02:16:21 02:24:47 53° 90° (E) 02:33:10 435.215
BEESAT 28 Nov 02:16:42 02:20:28 23° 264° (W) 02:24:17 436.000
SO-50 28 Nov 02:27:56 02:31:14 21° 110° (ESE) 02:34:36 436.795
Oscar 19 28 Nov 02:55:41 03:00:19 34° 290° (WNW) 03:04:57 437.125/150
STARS 28 Nov 02:58:02 03:02:21 56° 259° (W) 03:06:41 437.465
Gurwin Techsat 1B 28 Nov 02:59:03 03:04:14 53° 100° (E) 03:09:24 435.225
JUGNU 28 Nov 03:01:43 03:03:54 12° 192° (SSW) 03:06:04 437.505
SRMSAT 28 Nov 03:15:17 03:18:50 16° 186° (S) 03:22:24 437.500
AO-7 28 Nov 03:19:27 03:24:16 16° 92° (E) 03:29:02 29.400- 29.500
HORYU 2 28 Nov 03:19:38 03:23:44 34° 98° (E) 03:27:49 437.375
MOZHAYETS 4 28 Nov 03:31:04 03:32:00 11° 64° (ENE) 03:32:57
KKS-1 28 Nov 03:46:49 03:48:09 11° 268° (W) 03:49:30 437.445
PCSat 28 Nov 03:52:50 03:56:50 20° 51° (NE) 04:00:48 145.827
ITAMSAT 1 28 Nov 03:54:08 03:58:20 26° 292° (WNW) 04:02:31 435.822/435.867
BEESAT 2 28 Nov 03:54:17 03:55:59 12° 46° (NE) 03:57:41 435.950
RS-15 28 Nov 04:06:31 04:12:59 17° 261° (W) 04:19:37 29.354- 29.394
SO-50 28 Nov 04:07:21 04:11:29 36° 306° (NW) 04:15:46 436.795
YUBILEINY 28 Nov 04:14:22 04:21:49 30° 287° (WNW) 04:29:19 435.215
AIST 2 28 Nov 04:38:05 04:40:55 17° 49° (NE) 04:43:44 435.215
Gurwin Techsat 1B 28 Nov 04:40:20 04:43:44 18° 295° (WNW) 04:47:07 435.225
ISS 28 Nov 04:56:16 04:58:44 19° 31° (NNE) 05:01:12 145.825
HORYU 2 28 Nov 04:56:56 05:00:09 20° 292° (WNW) 05:03:21 437.375
MOZHAYETS 4 28 Nov 05:04:02 05:08:36 68° 259° (W) 05:13:13
AO-7 28 Nov 05:09:26 05:17:51 87° 288° (WNW) 05:26:13 29.400- 29.500
O/OREOS (USA 219) 28 Nov 05:11:44 05:15:42 31° 104° (ESE) 05:19:40 437.305
BEESAT 3 28 Nov 05:13:06 05:17:18 86° 61° (ENE) 05:21:26 437.485
CUBESAT XI-V 28 Nov 05:18:43 05:19:57 11° 64° (ENE) 05:21:10 437.345
JAS-2 28 Nov 05:22:11 05:28:42 46° 97° (E) 05:34:25 435.910
PRISM 28 Nov 05:26:04 05:29:53 35° 72° (ENE) 05:33:44 437.425
BEESAT 2 28 Nov 05:30:32 05:34:43 66° 243° (WSW) 05:38:49 435.950
PCSat 28 Nov 05:35:17 05:40:33 53° 248° (WSW) 05:45:46 145.827
CUTE-I 28 Nov 05:52:45 05:56:25 19° 94° (E) 06:00:04 437.470
AIST 1 28 Nov 05:57:12 05:59:11 13° 72° (ENE) 06:01:09
AIST 2 28 Nov 06:15:41 06:19:46 44° 246° (WSW) 06:23:47 435.215
ISS 28 Nov 06:32:22 06:35:30 42° 227° (SW) 06:38:37 145.825
STRAND 1 28 Nov 06:41:47 06:46:56 87° 76° (ENE) 06:52:06 437.568
Cubesat XI-IV 28 Nov 06:50:41 06:56:00 74° 103° (ESE) 07:01:18 437.490
O/OREOS (USA 219) 28 Nov 06:51:45 06:55:07 21° 299° (WNW) 06:58:29 437.305
CUBESAT XI-V 28 Nov 06:52:03 06:56:45 70° 259° (W) 07:01:29 437.345
PRISM 28 Nov 07:02:55 07:05:31 16° 266° (W) 07:08:09 437.425
AO-7 28 Nov 07:04:23 07:09:27 18° 306° (NW) 07:14:31 29.400- 29.500
JAS-2 28 Nov 07:07:49 07:13:18 26° 297° (WNW) 07:18:18 435.910
CUTE-I 28 Nov 07:31:37 07:36:40 46° 288° (WNW) 07:41:41 437.470
AIST 1 28 Nov 07:32:56 07:37:05 43° 268° (W) 07:41:10
GONETS M04 28 Nov 08:06:43 08:15:16 59° 91° (E) 08:23:53
BRITE-PL 28 Nov 08:24:26 08:25:17 11° 93° (E) 08:26:08 437.365/2234.400
Cubesat XI-IV 28 Nov 08:33:11 08:35:24 13° 298° (WNW) 08:37:38 437.490
HO-68 28 Nov 08:44:28 08:50:45 32° 97° (E) 08:56:59 435.675
SEEDS 28 Nov 08:46:54 08:49:59 19° 95° (E) 08:53:03 437.485
AAUSAT CUBESAT 2 28 Nov 08:58:38 09:01:42 19° 95° (E) 09:04:44 437.432
Oscar 11 28 Nov 09:04:47 09:05:23 10° 91° (E) 09:05:58 145.826/435.025
COMPASS 1 28 Nov 09:15:02 09:18:56 34° 98° (E) 09:22:49 437.405
CANX-2 28 Nov 09:17:35 09:21:51 58° 100° (E) 09:26:05 2200.000
GOMX 1 28 Nov 09:18:33 09:22:25 35° 98° (E) 09:26:25 467.674
DX 1 28 Nov 09:31:17 09:34:23 19° 95° (E) 09:37:29 434.975-435.025
UWE-3 28 Nov 09:33:58 09:35:28 12° 93° (E) 09:36:59 435.000/436.395/437.385
QB50P1 28 Nov 09:34:40 09:36:12 12° 66° (ENE) 09:37:44 145.935-145.965
CUBEBUG 2 28 Nov 09:38:02 09:40:40 16° 94° (E) 09:43:20 437.445
CUTE 1.7 + AOD 2 28 Nov 09:51:56 09:56:10 58° 285° (WNW) 10:00:23 437.475
POPSAT HIP 1 28 Nov 09:57:52 10:01:10 22° 70° (ENE) 10:04:27 437.405
BRITE-PL 28 Nov 10:00:03 10:04:03 48° 285° (WNW) 10:08:10 437.365/2234.400
TIGRISAT 28 Nov 10:00:07 10:03:57 34° 72° (ENE) 10:07:47 435.000
ZACube-1 28 Nov 10:01:43 10:05:01 21° 96° (E) 10:08:22 437.345
DOVE 4 28 Nov 10:02:22 10:06:36 89° 105° (ESE) 10:11:00 437.250
GONETS M04 28 Nov 10:05:24 10:12:31 27° 289° (WNW) 10:19:44
VELOX 1 28 Nov 10:12:35 10:15:26 17° 94° (E) 10:18:17 145.980
UNISAT 6 28 Nov 10:14:53 10:19:02 52° 74° (ENE) 10:23:11 437.425
CINEMA 3 28 Nov 10:19:18 10:23:35 82° 102° (ESE) 10:28:02 145.822/145.860
SEEDS 28 Nov 10:22:05 10:25:49 30° 288° (WNW) 10:29:32 437.485
DELFI C3 28 Nov 10:25:23 10:29:33 89° 102° (ESE) 10:33:41 145.870
UKube-1 28 Nov 10:28:10 10:32:31 90° 286° (WNW) 10:36:50 .
HO-68 28 Nov 10:31:50 10:38:28 43° 293° (WNW) 10:45:05 435.675
POLYITAN 1 28 Nov 10:32:02 10:36:12 57° 75° (ENE) 10:40:22 437.675
50 SAT 28 Nov 10:32:44 10:35:59 23° 96° (E) 10:39:13 437.505
QB50P2 28 Nov 10:32:58 10:37:09 59° 75° (ENE) 10:41:20 145.880/145.840
AAUSAT CUBESAT 2 28 Nov 10:33:41 10:37:22 29° 288° (WNW) 10:41:02 437.432
FUNcube-1 28 Nov 10:35:18 10:39:30 54° 100° (E) 10:43:46 145.935
DUCHIFAT 1 28 Nov 10:37:14 10:41:26 66° 76° (ENE) 10:45:39 145.980
Oscar 11 28 Nov 10:37:35 10:41:51 56° 285° (WNW) 10:46:06 145.826/435.025
AISAT 28 Nov 10:39:28 10:43:31 35° 98° (E) 10:47:34 437.250
ANTELSAT 28 Nov 10:43:52 10:48:06 68° 259° (W) 10:52:22 437.575/2403.000
CUBEBUG 1 28 Nov 10:44:24 10:46:22 13° 92° (E) 10:48:19 437.445
COMPASS 1 28 Nov 10:51:37 10:54:22 17° 292° (WNW) 10:57:07 437.405
CANX-2 28 Nov 10:56:14 10:57:15 11° 295° (WNW) 10:58:15 2200.000
NANOSAT C BR1 28 Nov 10:57:05 11:01:19 70° 258° (WSW) 11:05:34 145.865
GOMX 1 28 Nov 10:57:45 11:00:18 16° 291° (WNW) 11:02:54 467.674
HUMSAT D 28 Nov 11:00:48 11:04:58 64° 101° (E) 11:09:10 437.325/437.525
SO-50 28 Nov 11:02:54 11:04:46 12° 44° (NE) 11:06:39 436.795
BUGSAT 1 28 Nov 11:04:10 11:08:25 70° 258° (WSW) 11:12:38 437.445
DX 1 28 Nov 11:06:50 11:10:39 31° 289° (WNW) 11:14:27 434.975-435.025
QB50P1 28 Nov 11:07:28 11:11:37 52° 260° (W) 11:15:46 145.935-145.965
UWE-3 28 Nov 11:08:05 11:12:13 50° 285° (WNW) 11:16:28 435.000/436.395/437.385
CUBEBUG 2 28 Nov 11:13:31 11:17:27 37° 287° (WNW) 11:21:30 437.445
POPSAT HIP 1 28 Nov 11:33:21 11:36:55 26° 263° (W) 11:40:29 437.405
ZACube-1 28 Nov 11:37:45 11:41:21 27° 289° (WNW) 11:45:00 437.345
TIGRISAT 28 Nov 11:38:07 11:40:47 16° 266° (W) 11:43:28 435.000
TISAT 1 28 Nov 11:39:40 11:41:32 13° 93° (E) 11:43:23 437.305
VELOX 1 28 Nov 11:48:04 11:52:07 36° 288° (WNW) 11:56:08 145.980
UNISAT 6 28 Nov 11:55:24 11:56:07 10° 268° (W) 11:56:50 437.425
ESTCUBE 1 28 Nov 11:55:45 12:00:18 84° 283° (WNW) 12:04:49 437.505/2401.250
VERMONT LUNAR 28 Nov 11:56:20 11:57:28 11° 141° (SE) 11:58:35 437.305
SPROUT 28 Nov 11:56:46 11:59:48 19° 95° (E) 12:02:48 437.525
50 SAT 28 Nov 12:07:57 12:11:11 23° 290° (WNW) 12:14:25 437.505
FUNcube-1 28 Nov 12:13:57 12:15:23 12° 294° (WNW) 12:16:50 145.935
AISAT 28 Nov 12:16:54 12:19:52 18° 293° (WNW) 12:22:49 437.250
CUBEBUG 1 28 Nov 12:18:48 12:22:57 45° 287° (WNW) 12:27:04 437.445
CUSAT 1 28 Nov 12:21:33 12:23:04 14° 93° (E) 12:24:33 437.405
Oscar 19 28 Nov 12:31:00 12:35:11 26° 68° (ENE) 12:39:23 437.125/150
YUBILEINY 28 Nov 12:31:25 12:37:40 21° 69° (ENE) 12:43:51 435.215
SO-50 28 Nov 12:41:06 12:46:01 88° 61° (ENE) 12:50:55 436.795
